TimeCST,TemperatureF,Dew PointF,Humidity,Sea Level PressureIn,VisibilityMPH,Wind Direction,Wind SpeedMPH,Gust SpeedMPH,PrecipitationIn,Events,Conditions,WindDirDegrees,DateUTC
12:15 AM,-1.3,-10.3,66,30.25,10.0,NNW,5.8,-,N/A,,Scattered Clouds,330,2013-01-22 06:15:00
12:53 AM,-2.2,-11.2,66,30.25,10.0,NW,10.4,-,N/A,,Clear,320,2013-01-22 06:53:00
1:17 AM,-2.2,-11.2,66,30.25,10.0,NW,9.2,-,N/A,,Clear,310,2013-01-22 07:17:00
1:33 AM,-2.2,-11.2,66,30.26,10.0,NW,5.8,-,N/A,,Mostly Cloudy,310,2013-01-22 07:33:00
1:35 AM,-1.8,-11.2,64,30.26,10.0,NW,6.9,-,N/A,,Mostly Cloudy,310,2013-01-22 07:35:00
1:55 AM,-2.0,-13.0,60,30.27,10.0,NW,10.4,-,N/A,,Scattered Clouds,310,2013-01-22 07:55:00
2:15 AM,-2.2,-13.0,60,30.28,10.0,NW,8.1,-,N/A,,Clear,320,2013-01-22 08:15:00
2:35 AM,-2.4,-12.3,63,30.28,10.0,NW,5.8,-,N/A,,Clear,310,2013-01-22 08:35:00
2:55 AM,-2.6,-12.6,62,30.28,10.0,NW,8.1,-,N/A,,Clear,320,2013-01-22 08:55:00
3:15 AM,-2.7,-12.8,62,30.28,10.0,NW,6.9,-,N/A,,Clear,310,2013-01-22 09:15:00
3:35 AM,-3.1,-12.5,64,30.29,10.0,WNW,5.8,-,N/A,,Clear,300,2013-01-22 09:35:00
3:55 AM,-3.6,-12.1,67,30.28,10.0,WNW,6.9,-,N/A,,Scattered Clouds,300,2013-01-22 09:55:00
4:15 AM,-4.0,-11.7,69,30.28,10.0,WNW,4.6,-,N/A,,Clear,300,2013-01-22 10:15:00
4:35 AM,-4.0,-11.6,70,30.28,10.0,NW,5.8,-,N/A,,Clear,310,2013-01-22 10:35:00
4:55 AM,-4.2,-11.9,69,30.28,10.0,WNW,4.6,-,N/A,,Clear,290,2013-01-22 10:55:00
5:15 AM,-4.4,-12.1,69,30.28,10.0,WNW,4.6,-,N/A,,Clear,300,2013-01-22 11:15:00
5:35 AM,-4.9,-11.9,72,30.28,10.0,West,4.6,-,N/A,,Clear,280,2013-01-22 11:35:00
5:55 AM,-4.9,-11.7,72,30.28,10.0,WNW,3.5,-,N/A,,Clear,290,2013-01-22 11:55:00
6:15 AM,-5.4,-12.1,73,30.29,10.0,West,3.5,-,N/A,,Clear,280,2013-01-22 12:15:00
6:35 AM,-5.1,-11.7,73,30.30,10.0,West,4.6,-,N/A,,Clear,280,2013-01-22 12:35:00
6:55 AM,-5.8,-12.3,74,30.30,10.0,WNW,4.6,-,N/A,,Clear,290,2013-01-22 12:55:00
7:15 AM,-5.3,-12.3,72,30.31,10.0,West,3.5,-,N/A,,Clear,280,2013-01-22 13:15:00
7:35 AM,-5.1,-12.3,71,30.31,10.0,West,4.6,-,N/A,,Clear,280,2013-01-22 13:35:00
7:55 AM,-4.0,-11.4,71,30.31,10.0,WNW,3.5,-,N/A,,Clear,290,2013-01-22 13:55:00
8:15 AM,-2.6,-10.7,68,30.32,10.0,West,6.9,-,N/A,,Clear,280,2013-01-22 14:15:00
8:35 AM,-2.0,-10.8,66,30.32,10.0,West,10.4,-,N/A,,Clear,280,2013-01-22 14:35:00
8:55 AM,-1.3,-10.7,65,30.32,10.0,West,10.4,-,N/A,,Clear,280,2013-01-22 14:55:00
9:15 AM,-0.4,-10.1,64,30.32,10.0,WNW,9.2,-,N/A,,Clear,290,2013-01-22 15:15:00
9:35 AM,0.1,-10.3,61,30.33,10.0,WNW,11.5,-,N/A,,Clear,300,2013-01-22 15:35:00
9:55 AM,0.3,-9.8,63,30.33,10.0,WNW,9.2,-,N/A,,Clear,290,2013-01-22 15:55:00
10:15 AM,1.4,-9.4,61,30.33,10.0,West,10.4,-,N/A,,Clear,280,2013-01-22 16:15:00
10:35 AM,2.1,-9.6,58,30.33,10.0,WNW,8.1,-,N/A,,Clear,300,2013-01-22 16:35:00
10:55 AM,3.7,-7.8,59,30.33,10.0,West,10.4,16.1,N/A,,Clear,260,2013-01-22 16:55:00
11:15 AM,4.1,-8.1,57,30.34,10.0,WNW,10.4,-,N/A,,Scattered Clouds,290,2013-01-22 17:15:00
11:55 AM,5.5,-7.6,55,30.32,10.0,WSW,9.2,-,N/A,,Scattered Clouds,250,2013-01-22 17:55:00
12:15 PM,6.3,-7.4,54,30.32,10.0,WNW,10.4,-,N/A,,Clear,300,2013-01-22 18:15:00
12:35 PM,6.6,-7.4,53,30.29,10.0,WNW,10.4,-,N/A,,Clear,290,2013-01-22 18:35:00
12:55 PM,7.0,-7.1,53,30.29,10.0,West,10.4,-,N/A,,Clear,280,2013-01-22 18:55:00
1:15 PM,6.6,-8.1,51,30.29,10.0,West,10.4,-,N/A,,Clear,280,2013-01-22 19:15:00
1:35 PM,7.9,-6.9,51,30.29,10.0,WNW,11.5,-,N/A,,Clear,290,2013-01-22 19:35:00
1:55 PM,8.6,-6.5,50,30.28,10.0,WNW,10.4,17.3,N/A,,Clear,300,2013-01-22 19:55:00
2:15 PM,8.8,-7.2,48,30.28,10.0,West,10.4,17.3,N/A,,Clear,280,2013-01-22 20:15:00
2:35 PM,9.5,-6.5,48,30.29,10.0,West,13.8,20.7,N/A,,Scattered Clouds,280,2013-01-22 20:35:00
2:55 PM,9.7,-7.2,46,30.30,10.0,WNW,13.8,-,N/A,,Clear,290,2013-01-22 20:55:00
3:15 PM,9.5,-7.4,46,30.30,10.0,WNW,13.8,18.4,N/A,,Clear,290,2013-01-22 21:15:00
3:35 PM,9.1,-7.2,48,30.30,10.0,WNW,15.0,-,N/A,,Clear,290,2013-01-22 21:35:00
3:55 PM,10.0,-6.7,47,30.29,10.0,West,13.8,-,N/A,,Clear,280,2013-01-22 21:55:00
4:15 PM,9.9,-6.9,47,30.28,10.0,WNW,12.7,-,N/A,,Clear,300,2013-01-22 22:15:00
4:35 PM,9.3,-7.1,48,30.28,10.0,West,11.5,16.1,N/A,,Clear,280,2013-01-22 22:35:00
4:55 PM,8.4,-7.6,48,30.29,10.0,West,11.5,-,N/A,,Clear,270,2013-01-22 22:55:00
5:15 PM,7.5,-6.7,52,30.29,10.0,WNW,9.2,-,N/A,,Clear,300,2013-01-22 23:15:00
5:35 PM,8.1,-6.3,52,30.29,10.0,West,10.4,-,N/A,,Clear,280,2013-01-22 23:35:00
5:55 PM,8.1,-6.7,51,30.28,10.0,West,8.1,-,N/A,,Scattered Clouds,280,2013-01-22 23:55:00
6:15 PM,8.1,-6.3,52,30.29,10.0,West,9.2,-,N/A,,Scattered Clouds,270,2013-01-23 00:15:00
6:35 PM,8.1,-6.0,53,30.29,10.0,WNW,8.1,-,N/A,,Scattered Clouds,290,2013-01-23 00:35:00
6:55 PM,8.1,-6.0,53,30.29,10.0,West,6.9,-,N/A,,Clear,280,2013-01-23 00:55:00
7:15 PM,7.7,-6.0,54,30.28,10.0,West,6.9,-,N/A,,Clear,280,2013-01-23 01:15:00
7:35 PM,7.5,-6.2,54,30.29,10.0,West,6.9,-,N/A,,Clear,280,2013-01-23 01:35:00
7:55 PM,7.5,-5.4,56,30.29,10.0,West,4.6,-,N/A,,Clear,280,2013-01-23 01:55:00
8:15 PM,7.7,-5.6,55,30.28,10.0,West,4.6,-,N/A,,Clear,280,2013-01-23 02:15:00
8:35 PM,7.7,-6.0,54,30.28,10.0,West,5.8,-,N/A,,Clear,280,2013-01-23 02:35:00
8:55 PM,7.3,-5.6,56,30.28,10.0,West,5.8,-,N/A,,Clear,270,2013-01-23 02:55:00
9:15 PM,6.8,-5.6,57,30.28,10.0,West,4.6,-,N/A,,Clear,260,2013-01-23 03:15:00
9:35 PM,5.9,-6.0,58,30.28,10.0,West,3.5,-,N/A,,Clear,260,2013-01-23 03:35:00
9:55 PM,5.4,-5.3,62,30.29,10.0,West,3.5,-,N/A,,Clear,270,2013-01-23 03:55:00
10:15 PM,5.7,-4.7,62,30.29,10.0,Calm,Calm,-,N/A,,Clear,0,2013-01-23 04:15:00
10:35 PM,4.6,-4.5,66,30.29,10.0,WSW,3.5,-,N/A,,Clear,250,2013-01-23 04:35:00
10:55 PM,5.2,-4.2,65,30.29,10.0,Calm,Calm,-,N/A,,Mostly Cloudy,0,2013-01-23 04:55:00
11:15 PM,7.0,-4.2,60,30.28,10.0,WSW,3.5,-,N/A,,Overcast,250,2013-01-23 05:15:00
11:55 PM,7.7,-4.2,58,30.27,10.0,Calm,Calm,-,N/A,,Overcast,0,2013-01-23 05:55:00